[[{"header":{"parameterUnit":"m.s-1","parameterCategory":1,"la1":30.2991,"la2":30.254,"lo1":-89.0895,"lo2":-89.0444,"dy":0.0017,"dx":0.0017,"nx":28,"ny":28,"refTime":"2024-11-23T09:00:00:Z","depth":0,"parameterNumber":2,"parameterNumberName":"U-component_of_WINDS"},"data":[0,0,0,0,0,0,0,0,0,0,0,0,0,0,0,0,0,0,0,0,0,0,0,0,0,0,0,0,0,0,0,0,0,0,0,0,0,0,0,0,0,0,0,0,0,0,0,0,0,0,0,0,0,0,0,0,0,0,0.8234,0.8234,0,0.8225,0.8225,0.8224,0.8186,0.8185,0.8184,0.8183,0.8174,0.8174,0.8175,0,0,0,0,0,0,0,0,0,0,0,0,0,0.8219,0.8219,0.8234,0.8234,0.8234,0.8225,0.8225,0.8224,0.8186,0.8185,0.8184,0.8182,0.8173,0.8174,0.8175,0,0,0,0,0,0,0,0,0,0,0,0,0,0.8219,0.8219,0.8234,0.8213,0.8211,0.8225,0.8225,0.8224,0.8186,0.8185,0.8183,0.8182,0.8173,0.8174,0.8175,0.8207,0,0,0.8178,0.8178,0,0,0,0,0,0,0,0,0.8219,0.8219,0.8216,0.8215,0.8213,0.8205,0.8216,0.8219,0.8186,0.8196,0.8183,0.8181,0.8185,0.8185,0.8186,0.8207,0.8207,0.8178,0.8178,0.8179,0.8179,0,0,0,0,0,0,0,0.8219,0.822,0.823,0.8216,0.8214,0.8205,0.8203,0.8216,0.8198,0.8195,0.8192,0.8191,0.8184,0.8185,0.8186,0.8206,0.8178,0.8178,0.8179,0.8179,0.8253,0.8254,0,0,0,0,0,0,0.8222,0.822,0.823,0.823,0.8212,0.8206,0.8204,0.8209,0.8198,0.8195,0.8192,0.819,0.8185,0.8185,0.8185,0.8222,0.8179,0.8179,0.818,0.8252,0.8253,0.8255,0,0,0,0,0,0,0.8222,0.8223,0.8231,0.8224,0.8224,0.8208,0.8213,0.8209,0.8211,0.8196,0.8193,0.8197,0.8183,0.8184,0.8202,0.8221,0.818,0.8181,0.825,0.8252,0.8254,0.8296,0,0,0,0,0,0,0.8221,0.8223,0.8235,0.8225,0.8225,0.8248,0.8214,0.821,0.8212,0.8208,0.82,0.8197,0.8182,0.8201,0.8203,0.8221,0.8181,0.8248,0.8251,0.8253,0.8292,0.8299,0.8304,0,0,0,0,0,0.8221,0.8247,0.8236,0.8238,0.824,0.8249,0.8249,0.8232,0.8214,0.8226,0.8217,0.8197,0.8219,0.8203,0.8205,0.8224,0.8247,0.825,0.8253,0.829,0.8298,0.8304,0,0,0,0,0,0,0.826,0.8246,0.8233,0.8257,0.8254,0.8242,0.8257,0.8241,0.8243,0.824,0.8218,0.8216,0.8238,0.8233,0.8215,0.8255,0.823,0.8233,0.8257,0.8264,0.827,0.827,0.8182,0,0,0,0,0,0.8272,0.8281,0.8268,0.829,0.8289,0.8274,0.8277,0.8264,0.8261,0.8259,0.8251,0.8249,0.8255,0.826,0.8265,0.8292,0.8289,0.8306,0.8312,0.8317,0.832,0.8334,0.8341,0.8265,0.8265,0.8265,0,0,0.8296,0.8289,0.8296,0.8298,0.8294,0.8304,0.8273,0.8284,0.8291,0.8261,0.8277,0.8272,0.8268,0.8291,0.83,0.8287,0.8341,0.8321,0.8325,0.8326,0.8338,0.8345,0.8351,0.8268,0.8267,0.8267,0,0,0.8343,0.834,0.8357,0.8355,0.835,0.834,0.8344,0.8335,0.833,0.8346,0.8323,0.8332,0.8343,0.8341,0.8341,0.8389,0.8371,0.8392,0.8422,0.8436,0.8442,0.8447,0.8463,0.8469,0.8395,0.8395,0.8395,0,0.8373,0.8387,0.8369,0.8381,0.8383,0.8357,0.8374,0.8373,0.837,0.8372,0.8358,0.8371,0.8367,0.8388,0.84,0.8402,0.8406,0.8392,0.8442,0.8447,0.8452,0.8467,0.8473,0.8398,0.8397,0.8397,0.8397,0,0.8423,0.8433,0.8448,0.8446,0.8449,0.8465,0.8449,0.8455,0.8442,0.8433,0.845,0.8444,0.8447,0.8451,0.8439,0.8471,0.8463,0.8446,0.842,0.8462,0.8475,0.8481,0.8401,0.84,0.8399,0.8399,0,0,0.8494,0.8482,0.8488,0.8487,0.848,0.8487,0.8502,0.8505,0.851,0.8509,0.852,0.8531,0.8515,0.8516,0.8503,0.8515,0.8553,0.8497,0.8496,0.8506,0.8587,0.8599,0.8606,0.8542,0.8543,0.8544,0.8587,0,0.8538,0.8561,0.8546,0.8572,0.858,0.8556,0.8569,0.8566,0.8559,0.8565,0.8557,0.8564,0.8543,0.8543,0.8555,0.8546,0.8568,0.8543,0.8551,0.8552,0.8551,0.8613,0.8625,0.8666,0.8592,0.8593,0.8594,0,0.8592,0.8594,0.8621,0.8613,0.8616,0.8627,0.8629,0.8635,0.8632,0.8626,0.8627,0.8611,0.8625,0.8601,0.8619,0.8602,0.8605,0.8601,0.8602,0.8601,0.8574,0.8612,0.8679,0.8685,0.8603,0.8602,0.8601,0,0.8639,0.8649,0.8666,0.8666,0.8657,0.8666,0.8662,0.8658,0.8661,0.8663,0.8664,0.8668,0.8669,0.8672,0.8658,0.8642,0.8678,0.8653,0.8672,0.8673,0.8679,0.8679,0.8747,0.8684,0.8684,0.8684,0.8684,0,0.8689,0.8706,0.8687,0.8697,0.8715,0.8698,0.8717,0.8711,0.8708,0.8716,0.8697,0.8705,0.8687,0.8694,0.8683,0.8699,0.8701,0.8696,0.8692,0.8696,0.8697,0.8696,0.8693,0.8686,0.8685,0.8685,0.8685,0,0.8744,0.8732,0.8748,0.8739,0.8737,0.8751,0.8743,0.8752,0.8744,0.8756,0.8757,0.8744,0.8751,0.8738,0.8744,0.8736,0.8759,0.8752,0.876,0.8757,0.8777,0.8774,0.8845,0.8853,0.8787,0.8788,0.8789,0,0.8776,0.8788,0.878,0.8785,0.8783,0.879,0.8793,0.8777,0.8781,0.8779,0.8788,0.8794,0.8797,0.881,0.8801,0.8805,0.8797,0.8822,0.8797,0.8801,0.8796,0.8794,0.8795,0.8826,0.8827,0.8827,0.8828,0,0.8833,0.8826,0.8831,0.8834,0.8838,0.884,0.884,0.8845,0.8828,0.8834,0.8841,0.8843,0.8849,0.8855,0.8857,0.8854,0.8838,0.8836,0.8841,0.8844,0.8847,0.8844,0.8771,0.8834,0.8833,0.8833,0.8833,0.8832,0.8876,0.8885,0.8881,0.8888,0.8886,0.8887,0.8895,0.8888,0.8894,0.8897,0.8888,0.8897,0.8894,0.8895,0.8894,0.8901,0.889,0.8897,0.8898,0.89,0.8902,0.8848,0.8902,0.8902,0.8901,0.8901,0.8901,0,0.893,0.8927,0.8933,0.8934,0.8939,0.8925,0.8924,0.8929,0.8938,0.8936,0.894,0.8949,0.8954,0.8946,0.895,0.8958,0.895,0.8959,0.8957,0.8957,0.8913,0.8908,0.8965,0.8965,0.8965,0.8965,0.8965,0.8965,0.8959,0.8975,0.8968,0.8983,0.8979,0.8988,0.8989,0.899,0.8989,0.8999,0.9003,0.8998,0.8994,0.8998,0.9003,0.9,0.9002,0.9013,0.9008,0.8966,0.896,0.8954,0.8949,0.9014,0.9014,0.9051,0.9051,0.9052]},{"header":{"parameterUnit":"m.s-1","parameterCategory":1,"la1":30.2991,"la2":30.254,"lo1":-89.0895,"lo2":-89.0444,"dy":0.0017,"dx":0.0017,"nx":28,"ny":28,"refTime":"2024-11-23T09:00:00:Z","depth":0,"parameterNumber":3,"parameterNumberName":"V-component_of_WINDS"},"data":[0,0,0,0,0,0,0,0,0,0,0,0,0,0,0,0,0,0,0,0,0,0,0,0,0,0,0,0,0,0,0,0,0,0,0,0,0,0,0,0,0,0,0,0,0,0,0,0,0,0,0,0,0,0,0,0,0,0,4.5132,4.5135,0,4.5386,4.5389,4.5392,4.5421,4.5419,4.5416,4.5414,4.5671,4.568,4.5689,0,0,0,0,0,0,0,0,0,0,0,0,0,4.4669,4.4677,4.5132,4.5135,4.5138,4.5386,4.5389,4.5393,4.5422,4.5419,4.5416,4.5413,4.5668,4.5679,4.569,0,0,0,0,0,0,0,0,0,0,0,0,0,4.4891,4.468,4.5131,4.5183,4.519,4.5385,4.5389,4.5393,4.5422,4.5419,4.5415,4.5411,4.5665,4.5678,4.5692,4.5852,0,0,4.5734,4.574,0,0,0,0,0,0,0,0,4.4878,4.4908,4.5172,4.5179,4.5188,4.5368,4.532,4.5547,4.5423,4.5334,4.5414,4.541,4.5573,4.5594,4.565,4.5864,4.5875,4.5735,4.5743,4.5749,4.5753,0,0,0,0,0,0,0,4.4863,4.4897,4.5232,4.5176,4.5185,4.5192,4.5219,4.5363,4.5472,4.5342,4.5344,4.5374,4.5577,4.5637,4.5657,4.5879,4.5735,4.5747,4.5755,4.5761,4.6236,4.6241,0,0,0,0,0,0,4.4839,4.4884,4.5224,4.524,4.5021,4.5203,4.5234,4.5314,4.547,4.549,4.5377,4.5375,4.5615,4.564,4.5666,4.5863,4.5749,4.5762,4.577,4.6232,4.6237,4.6242,0,0,0,0,0,0,4.4828,4.4869,4.5214,4.5063,4.5108,4.5215,4.5305,4.5321,4.5381,4.5497,4.5516,4.5419,4.5613,4.5646,4.5806,4.5873,4.5768,4.5781,4.6227,4.6234,4.624,4.626,0,0,0,0,0,0,4.4815,4.4865,4.4928,4.5064,4.5115,4.5351,4.5309,4.5329,4.5405,4.5404,4.5541,4.556,4.5613,4.5785,4.5819,4.589,4.5792,4.6221,4.623,4.6238,4.6254,4.6266,4.6277,0,0,0,0,0,4.4798,4.4923,4.4931,4.4971,4.5196,4.5354,4.5384,4.5443,4.541,4.5474,4.5548,4.5556,4.586,4.5801,4.584,4.5915,4.6217,4.6228,4.6237,4.6248,4.6264,4.6277,0,0,0,0,0,0,4.479,4.4942,4.4952,4.5124,4.5226,4.5359,4.5441,4.5457,4.557,4.5564,4.5631,4.5662,4.5818,4.5883,4.5815,4.6078,4.6035,4.6053,4.603,4.6046,4.6058,4.6038,4.5803,0,0,0,0,0,4.4809,4.4925,4.5051,4.5191,4.5242,4.5332,4.5404,4.544,4.5548,4.5591,4.5677,4.5781,4.59,4.5977,4.6092,4.6263,4.6293,4.6334,4.6346,4.6355,4.6369,4.6463,4.6483,4.6274,4.6274,4.6274,0,0,4.4848,4.4945,4.5014,4.5192,4.5275,4.5393,4.5369,4.5495,4.5583,4.561,4.5766,4.5833,4.5953,4.6118,4.6195,4.6177,4.6434,4.6367,4.6374,4.6384,4.6476,4.6495,4.6513,4.6281,4.628,4.6279,0,0,4.4979,4.5064,4.519,4.5274,4.5401,4.5461,4.5491,4.5622,4.5667,4.5825,4.5847,4.5953,4.6156,4.6241,4.631,4.6473,4.6484,4.6509,4.6569,4.666,4.6677,4.6692,4.6749,4.6768,4.6523,4.6523,4.6523,0,4.5011,4.5191,4.5252,4.5379,4.5455,4.5486,4.5613,4.5692,4.5849,4.5901,4.5878,4.6134,4.6217,4.6402,4.6442,4.6498,4.6533,4.6493,4.667,4.6685,4.67,4.6755,4.6776,4.6525,4.6525,4.6525,4.6525,0,4.5224,4.5348,4.5434,4.5587,4.5673,4.5799,4.5878,4.5959,4.5987,4.6049,4.6208,4.6309,4.6446,4.6492,4.6522,4.6682,4.6666,4.6656,4.6614,4.6721,4.6774,4.6795,4.6528,4.6527,4.6527,4.6526,0,0,4.5357,4.5542,4.5572,4.5641,4.5783,4.588,4.6007,4.6141,4.6208,4.6316,4.6423,4.6594,4.6585,4.6664,4.6703,4.6783,4.6904,4.6763,4.6766,4.6785,4.7085,4.7092,4.7115,4.6912,4.6917,4.692,4.7075,0,4.5504,4.5731,4.579,4.5983,4.6098,4.6129,4.6239,4.6337,4.6398,4.6504,4.6571,4.6691,4.6671,4.6718,4.6799,4.6872,4.6965,4.6862,4.7011,4.7016,4.6979,4.7143,4.7151,4.7292,4.7096,4.71,4.7102,0,4.5706,4.5818,4.6023,4.615,4.62,4.6298,4.6425,4.6527,4.6638,4.6677,4.6765,4.6796,4.6928,4.6879,4.7061,4.6989,4.7054,4.7099,4.7106,4.7121,4.7065,4.7162,4.7339,4.736,4.7136,4.7133,4.7131,0,4.5781,4.5984,4.6133,4.6191,4.6342,4.641,4.6476,4.6585,4.6661,4.6772,4.6822,4.6947,4.7015,4.711,4.7173,4.7132,4.735,4.7306,4.7384,4.7382,4.7428,4.7424,4.7616,4.7471,4.747,4.747,4.7469,0,4.5939,4.6063,4.6168,4.626,4.6399,4.6465,4.66,4.6667,4.6763,4.6867,4.6901,4.6997,4.7076,4.7183,4.7233,4.7375,4.7406,4.744,4.7451,4.7436,4.7432,4.7479,4.7471,4.7476,4.7474,4.7473,4.7472,0,4.6047,4.6123,4.6286,4.6416,4.6452,4.6549,4.666,4.6749,4.681,4.6941,4.6976,4.7073,4.72,4.7273,4.7433,4.7467,4.7625,4.7632,4.7587,4.7593,4.7666,4.7657,4.7895,4.7929,4.776,4.7762,4.7763,0,4.6142,4.6238,4.6378,4.6451,4.6518,4.6634,4.6713,4.6781,4.6861,4.6995,4.7068,4.7198,4.7305,4.7507,4.7591,4.7713,4.7724,4.7798,4.7742,4.7724,4.7724,4.7717,4.7726,4.7807,4.7809,4.781,4.7811,0,4.6303,4.6335,4.6448,4.6574,4.6667,4.6769,4.687,4.6927,4.7012,4.71,4.7231,4.7314,4.7478,4.7606,4.7735,4.7802,4.7821,4.7828,4.7853,4.7838,4.7808,4.7824,4.7613,4.7822,4.7821,4.782,4.782,4.7819,4.6407,4.6493,4.6606,4.673,4.6813,4.6907,4.6997,4.707,4.7181,4.732,4.7353,4.7491,4.7599,4.7775,4.7845,4.7953,4.7939,4.7975,4.7984,4.7991,4.7993,4.7791,4.7977,4.7976,4.7976,4.7976,4.7976,0,4.6569,4.6643,4.6756,4.6897,4.6994,4.7004,4.7116,4.7196,4.7317,4.7417,4.7522,4.7672,4.7797,4.789,4.8017,4.8085,4.8096,4.8116,4.8111,4.8126,4.7998,4.7964,4.8104,4.8104,4.8104,4.8104,4.8104,4.8104,4.6664,4.6811,4.6857,4.7045,4.7118,4.7253,4.7317,4.7403,4.7483,4.7649,4.7753,4.7813,4.791,4.8044,4.8158,4.8182,4.8227,4.8245,4.827,4.8149,4.8135,4.8122,4.809,4.8254,4.8254,4.8388,4.839,4.8391]}]]